Theta_e
331 343 355 353 350 348 347 346 346 345 344 343 341 339 338 339 337 336 335 335 334 333 333 333 332 332 332 332 332 333 333 333 333 336 340 345 348 351 353 355 356 353 356
333 345 355 353 351 349 348 347 346 346 345 344 340 339 338 338 337 336 335 336 336 336 335 334 334 333 333 333 333 333 334 334 334 335 335 336 339 343 350 353 353 352 356
334 345 350 353 352 350 350 349 348 346 345 344 342 340 338 338 337 337 337 337 336 336 335 334 334 333 333 333 335 335 335 335 336 337 336 332 332 337 342 351 351 351 355
337 344 345 353 351 351 350 349 348 347 346 345 343 341 339 338 338 338 338 337 336 336 336 336 335 334 334 334 334 336 337 338 337 338 333 335 334 337 338 344 351 352 351
336 342 343 352 352 351 351 350 349 347 346 344 342 342 341 340 340 340 338 338 338 338 338 339 338 337 338 338 337 338 339 341 341 339 332 329 329 336 342 343 352 353 353
335 339 345 352 352 352 352 351 349 348 347 345 343 343 342 340 342 342 339 339 339 340 340 341 341 341 341 341 341 340 340 343 342 335 334 333 333 338 343 346 347 354 354
333 335 340 352 352 352 352 351 349 349 348 347 346 344 343 344 343 342 340 340 341 342 342 343 343 343 344 343 343 344 341 343 337 333 333 332 332 340 346 352 355 354 354
331 332 335 350 351 351 352 351 349 349 348 347 347 347 346 346 345 343 342 342 343 343 344 344 344 344 345 343 342 343 342 342 339 333 331 329 333 341 344 354 353 351 351
330 330 332 342 348 352 351 350 350 349 348 348 348 347 347 347 347 345 344 343 343 344 344 345 344 345 345 342 341 341 342 342 335 332 333 330 336 340 343 351 352 353 351
330 327 329 337 341 343 344 351 350 350 349 348 348 348 347 348 348 346 346 346 344 344 345 346 346 346 345 343 341 340 340 341 334 332 331 331 339 341 343 351 349 351 352
334 329 327 333 336 339 340 344 350 350 350 349 348 348 346 341 341 342 345 345 345 345 346 347 348 347 345 341 340 339 339 332 332 332 331 338 340 341 344 348 350 350 349
329 332 332 334 332 335 338 337 343 342 342 342 342 341 341 338 337 341 343 346 346 346 348 349 349 346 342 332 331 336 330 330 330 331 331 340 340 340 344 346 347 346 349
325 331 336 335 334 332 334 335 339 341 339 340 339 338 339 338 337 338 336 338 338 345 340 343 342 339 333 331 328 326 326 326 328 330 333 339 339 340 343 343 345 346 348
312 322 335 337 335 333 333 333 335 337 337 337 338 337 337 336 333 332 334 332 331 335 338 336 333 333 331 331 328 327 325 325 326 329 330 338 339 340 341 344 343 346 345
311 314 329 336 336 335 333 332 334 336 336 335 337 338 337 335 332 331 330 329 330 331 335 331 330 330 328 328 329 328 327 327 328 328 327 336 339 341 341 342 343 343 343
315 313 320 335 336 336 335 333 334 335 336 335 337 338 337 334 331 330 330 329 328 329 330 330 330 329 326 327 327 327 327 325 328 328 328 329 338 340 342 342 344 342 342
315 315 313 332 335 335 335 334 334 335 336 335 336 336 336 334 331 330 329 327 329 327 327 328 330 328 328 327 328 328 328 328 325 325 327 328 330 340 343 345 344 342 342
313 314 315 328 334 335 335 335 334 336 336 335 334 335 335 334 333 330 329 328 328 326 327 327 326 327 324 326 324 322 323 325 327 329 329 327 328 331 337 344 342 341 341
314 314 313 317 327 334 334 332 333 334 336 335 334 334 334 335 334 331 329 328 327 326 325 325 325 324 321 322 322 322 322 322 323 327 326 326 325 331 331 337 340 341 343
313 314 313 318 326 328 329 330 331 332 331 333 333 335 336 336 334 331 330 328 326 325 324 323 322 323 322 321 323 323 323 323 321 322 324 325 325 328 331 328 329 333 341
313 315 315 323 328 332 332 330 327 328 326 326 331 335 334 334 332 329 328 327 326 325 325 324 322 323 322 323 321 320 321 321 320 321 322 323 324 326 327 328 328 330 335
316 321 321 327 331 331 332 327 326 325 324 326 327 332 333 333 334 332 327 326 325 324 323 324 324 321 321 323 318 316 311 315 319 320 320 321 322 325 325 326 328 329 331
320 324 327 329 331 332 330 328 325 325 324 323 323 325 329 334 333 329 328 326 325 326 324 323 323 321 316 320 317 314 309 306 308 314 318 319 320 320 323 326 328 329 329
321 327 330 331 332 332 330 328 327 322 321 321 323 324 326 329 329 329 328 326 325 324 323 321 322 318 316 313 317 318 313 311 307 307 314 316 319 319 320 322 325 327 328
325 327 330 331 331 329 329 329 325 322 321 321 322 323 323 325 328 330 328 326 324 322 322 321 319 318 317 315 314 314 313 313 312 308 307 313 316 317 318 320 321 323 327
325 328 329 331 327 328 327 326 324 322 320 321 320 321 322 323 324 327 327 324 323 322 321 320 320 319 317 316 316 315 313 312 311 310 307 308 310 314 323 325 327 325 328
Wind_Speed
6 12 21 19 19 18 17 17 16 16 17 17 17 17 16 15 14 14 13 12 10 9 7 7 6 4 4 4 3 3 4 4 5 7 8 6 8 6 5 8 11 8 11
12 15 23 21 20 19 18 17 16 16 16 16 16 16 17 16 15 14 13 12 11 9 7 6 5 3 2 2 2 2 2 2 2 5 7 8 9 7 3 8 9 8 12
12 13 18 21 21 20 19 18 17 17 17 17 17 16 16 16 15 14 12 10 9 8 7 5 5 4 2 0 1 2 3 3 2 3 5 4 5 9 5 6 9 11 12
15 13 15 22 22 22 21 21 19 19 19 19 19 18 17 16 15 14 13 12 10 8 7 6 5 4 3 2 3 3 4 5 4 4 2 4 5 9 9 7 7 10 11
14 14 15 23 23 24 23 21 21 19 18 18 19 18 18 17 16 14 14 13 12 10 8 7 6 5 5 5 5 5 5 6 6 4 2 3 4 7 10 10 8 10 11
13 13 18 24 24 23 22 20 20 20 19 19 18 18 18 18 16 15 16 14 13 12 10 8 7 7 7 7 7 6 7 8 7 3 3 5 5 9 12 13 13 11 11
12 12 16 25 23 21 21 21 20 20 20 19 18 18 18 17 16 16 15 15 14 13 11 10 8 8 8 8 9 7 7 8 5 3 3 4 5 11 14 8 12 12 12
16 14 13 19 20 22 22 22 21 21 21 20 19 18 17 16 16 16 15 14 13 12 11 11 10 7 7 7 7 9 8 10 7 3 3 4 8 11 14 7 12 12 11
9 12 11 13 16 21 22 21 21 21 21 20 20 19 18 17 16 15 15 14 13 12 11 11 10 8 8 9 9 8 10 11 6 3 4 3 8 12 11 8 7 8 11
2 7 9 11 13 13 13 22 22 22 22 21 20 20 18 18 17 16 14 13 13 12 11 12 12 9 9 8 9 10 11 11 5 4 3 4 10 13 13 10 8 7 8
5 6 6 10 12 13 12 14 20 22 21 20 19 19 16 8 9 12 12 13 14 13 13 12 12 10 9 10 10 10 12 2 4 3 3 9 11 13 15 12 10 9 9
11 10 10 11 14 13 11 10 12 10 11 12 11 12 9 8 7 9 11 15 15 15 14 13 12 11 10 3 3 7 2 4 4 4 3 13 13 13 12 9 12 10 10
21 9 15 15 14 14 13 9 7 7 7 8 11 9 8 6 5 5 3 4 4 10 4 7 7 4 5 4 3 3 4 4 3 3 7 14 13 13 12 9 10 10 10
10 16 15 17 14 14 9 10 10 8 8 8 9 10 8 6 6 5 5 5 4 4 5 5 3 4 5 5 5 5 5 4 3 4 6 15 13 14 14 13 12 12 11
7 10 14 13 14 14 13 9 9 11 10 9 8 10 9 8 7 6 5 4 5 4 5 4 4 4 5 5 4 5 5 6 6 3 3 13 14 15 15 16 13 11 11
10 9 10 13 16 13 14 14 11 9 9 8 8 9 11 8 6 6 6 6 4 4 4 5 6 6 5 4 5 5 6 5 5 5 4 5 15 13 14 16 15 12 10
8 10 11 16 11 13 17 14 9 8 8 9 8 10 12 10 7 8 6 4 6 4 5 4 4 4 3 4 6 4 3 5 5 5 5 4 5 9 11 16 18 14 12
8 10 9 10 14 15 14 11 9 8 8 8 8 8 12 12 10 6 5 5 4 4 5 4 4 4 4 4 3 4 4 4 5 4 4 4 4 3 4 11 12 12 14
12 12 10 10 11 13 9 7 7 7 7 7 7 7 11 11 9 7 5 5 5 4 4 4 3 3 3 4 4 4 4 4 4 2 4 5 6 4 3 6 11 11 12
10 7 7 6 8 8 6 5 4 5 4 6 7 7 10 8 9 7 5 5 5 4 4 3 4 4 3 4 4 4 4 4 3 3 4 3 5 4 4 5 3 5 12
9 9 9 8 7 9 6 5 4 6 4 3 4 8 8 7 8 7 5 5 5 6 7 7 3 4 4 2 2 0 2 4 4 4 3 3 4 5 4 4 4 4 5
9 9 8 7 9 6 4 4 4 4 3 3 4 6 8 8 9 8 6 5 6 4 4 4 4 2 3 5 2 2 1 2 2 4 4 4 6 3 4 5 5 5 5
9 8 7 8 9 8 9 7 4 4 4 3 3 3 3 6 6 6 6 5 5 4 4 4 4 5 3 2 1 4 2 4 1 1 4 4 4 3 4 4 5 5 5
8 6 6 8 9 8 8 8 11 5 4 2 3 3 4 5 6 5 5 5 5 3 4 4 4 3 3 3 1 2 1 3 2 2 2 0 2 3 3 3 4 5 5
7 6 7 7 8 9 7 9 7 5 4 3 3 6 4 4 6 6 6 4 4 4 4 5 4 5 3 3 3 2 1 1 2 2 1 1 1 1 1 1 2 3 4
6 7 8 10 7 8 7 8 9 8 7 5 4 4 4 3 3 4 5 5 4 4 4 4 4 5 4 3 3 3 4 4 3 2 1 1 1 2 3 1 2 3 3
Wind_Direction
212 164 166 171 172 171 166 161 156 148 142 138 138 138 138 138 139 140 141 141 142 141 135 125 115 104 86 65 54 62 53 34 357 340 339 347 342 359 189 175 153 146 152
131 163 167 172 172 173 169 168 163 154 147 145 144 145 145 147 147 148 148 150 151 150 146 142 137 130 113 89 32 1 17 56 13 333 325 334 328 323 291 189 179 167 162
138 163 167 171 172 173 174 172 169 163 157 153 154 154 155 155 156 155 155 156 157 158 160 166 168 169 176 183 275 311 326 334 353 328 320 342 325 305 332 230 195 187 171
148 162 167 172 176 176 178 176 173 170 166 162 162 162 163 164 165 164 166 167 172 179 182 191 199 202 215 232 262 279 297 305 313 302 12 322 323 312 307 311 211 192 185
157 166 171 176 181 180 182 179 175 174 170 170 169 169 170 172 172 174 178 178 181 189 198 206 216 224 234 241 244 253 259 273 289 310 341 314 294 296 304 292 228 193 184
164 170 177 181 184 184 182 180 178 176 175 177 178 177 175 178 180 182 187 188 189 194 205 216 224 235 244 250 256 250 255 259 269 305 309 300 309 300 300 291 250 195 185
173 180 184 187 184 183 185 186 183 180 181 182 183 183 183 182 186 192 195 194 196 198 203 218 231 244 255 259 259 250 253 260 249 260 281 290 293 300 316 276 169 179 184
175 181 190 188 188 187 187 189 189 185 185 186 187 187 189 189 191 195 202 206 203 207 211 215 228 235 254 258 263 256 253 254 261 238 274 283 289 299 326 206 170 180 187
176 176 178 189 196 197 192 194 192 190 191 190 191 190 190 193 198 198 205 210 215 213 220 227 232 232 237 246 260 263 253 257 247 250 256 268 288 293 305 250 194 190 188
240 199 183 183 191 200 203 197 196 196 195 195 195 192 194 196 198 200 210 213 220 225 223 235 234 230 235 239 251 261 263 256 256 254 248 258 276 283 285 238 206 194 200
206 208 202 187 206 198 205 209 202 202 201 201 199 197 194 193 202 200 203 213 222 227 231 232 236 229 233 241 250 259 264 241 255 253 252 261 270 278 284 220 198 195 199
217 212 190 199 202 200 202 204 205 202 204 203 200 197 193 182 185 190 202 218 224 231 234 232 229 228 236 220 249 266 270 246 239 247 251 263 265 269 267 231 203 207 201
216 192 201 204 206 197 200 195 199 199 200 202 198 187 185 180 188 195 188 218 219 234 220 235 228 207 208 213 223 238 250 246 234 241 250 258 255 258 257 236 218 203 212
198 214 206 206 200 201 196 200 200 200 200 203 198 184 178 179 185 184 195 209 210 210 204 206 198 196 216 228 210 235 237 243 229 241 240 254 250 244 247 229 232 228 215
229 220 217 200 199 197 199 199 198 201 201 197 188 187 183 187 186 178 197 202 212 200 197 196 192 198 215 228 226 215 237 236 241 226 235 252 248 241 240 244 227 236 233
251 235 209 203 203 188 202 205 204 199 194 190 187 187 185 185 175 189 211 217 209 202 194 186 198 203 213 207 238 212 233 247 238 230 222 245 255 248 235 230 226 227 240
244 247 202 204 186 195 202 206 198 194 187 190 187 178 181 182 181 184 202 214 213 196 188 194 193 178 216 224 232 214 220 259 252 237 225 232 257 254 239 225 212 218 227
249 250 228 183 191 195 200 198 193 187 185 188 180 172 183 187 179 175 185 213 225 185 185 181 182 190 205 200 229 237 238 256 268 239 216 210 240 253 228 190 193 212 224
236 239 223 181 192 194 192 183 183 169 179 175 161 175 184 183 175 187 172 192 185 177 175 176 185 158 182 223 231 241 238 237 239 224 225 227 238 235 214 212 197 206 213
248 242 232 172 180 165 141 126 113 135 150 164 173 176 173 176 166 164 172 182 183 155 184 180 186 199 195 214 220 218 224 239 230 216 228 233 238 236 225 221 205 211 211
246 220 210 186 164 144 148 145 148 175 148 146 163 166 161 153 156 158 176 182 164 184 194 191 171 199 222 208 187 63 270 240 241 231 215 230 252 235 219 221 206 201 206
243 216 216 184 157 156 123 113 138 139 123 136 150 161 162 165 164 178 177 182 181 192 190 197 207 223 228 182 157 94 280 313 255 214 203 213 227 231 224 217 201 205 191
230 208 188 154 137 136 129 116 80 75 72 82 80 90 148 160 171 165 179 181 202 198 206 207 199 193 178 203 198 139 126 230 338 319 210 202 212 213 230 223 204 196 189
217 138 145 132 139 132 143 128 147 139 135 140 138 146 175 173 170 163 172 186 221 198 200 189 180 168 142 163 188 195 103 136 152 334 2 173 168 198 216 234 216 203 187
149 140 131 133 124 129 142 136 131 114 109 120 119 132 129 132 150 165 181 193 197 191 202 177 163 177 174 148 161 141 136 75 94 131 283 306 10 77 82 260 277 250 196
124 133 138 133 127 123 128 120 133 132 128 115 114 131 131 129 144 176 169 176 190 183 185 191 193 185 181 172 175 173 160 164 179 154 199 259 148 24 54 93 192 220 197